When you browse on this site, cookies collect data to enhance your experience and personalize the content and advertising you see.
Visit our Privacy Policy to learn more. By continuing to use the site, you agree to this use of cookies and data.
  • In United Kingdom
  • List of Countries
  • For 7 days
  • Water Temperature
  • Weather Map
  • Weather Widgets
  • user-avatar
    Login

    Hourly Weather Aracaju

    Today, 1 April, Wednesday

    Time Temperature Precipitation Wind Pressure Humidity
    00:00 +28°C° 0.3 mm 3 mps 757 mmHg 89%
    01:00 +27°C° 0.3 mm 3 mps 757 mmHg 89%
    02:00 +27°C° 0.8 mm 3 mps 757 mmHg 89%
    03:00 +27°C° 0.8 mm 3 mps 757 mmHg 89%
    04:00 +27°C° 0.8 mm 3 mps 757 mmHg 89%
    05:00 +27°C° 0.4 mm 3 mps 757 mmHg 88%
    06:00 +27°C° 0.4 mm 3 mps 757 mmHg 88%
    07:00 +27°C° 0.4 mm 2 mps 758 mmHg 87%
    08:00 +28°C° 0.1 mm 3 mps 758 mmHg 83%
    09:00 +30°C° 0.1 mm 3 mps 758 mmHg 78%
    10:00 +31°C° 0.1 mm 3 mps 759 mmHg 74%
    11:00 +32°C° 0.1 mm 4 mps 758 mmHg 72%
    12:00 +32°C° 0.1 mm 4 mps 758 mmHg 69%
    13:00 +33°C° 0.1 mm 5 mps 758 mmHg 67%
    14:00 +33°C° 0 mm 5 mps 757 mmHg 68%
    15:00 +32°C° 0 mm 5 mps 757 mmHg 70%
    16:00 +32°C° 0 mm 5 mps 756 mmHg 71%
    17:00 +30°C° 0 mm 5 mps 757 mmHg 75%
    18:00 +29°C° 0 mm 4 mps 757 mmHg 79%
    19:00 +28°C° 0 mm 4 mps 757 mmHg 83%
    20:00 +28°C° 0 mm 4 mps 758 mmHg 84%
    21:00 +28°C° 0 mm 3 mps 758 mmHg 86%
    22:00 +28°C° 0 mm 3 mps 759 mmHg 87%
    23:00 +27°C° 0.1 mm 3 mps 759 mmHg 87%

    Tomorrow, 2 April, Thursday

    Time Temperature Precipitation Wind Pressure Humidity
    00:00 +27°C° 0.1 mm 3 mps 759 mmHg 88%
    01:00 +27°C° 0.1 mm 3 mps 759 mmHg 88%
    02:00 +27°C° 0.2 mm 3 mps 759 mmHg 88%
    03:00 +27°C° 0.2 mm 2 mps 758 mmHg 87%
    04:00 +27°C° 0.2 mm 2 mps 758 mmHg 87%
    05:00 +27°C° 0.1 mm 2 mps 758 mmHg 87%
    06:00 +27°C° 0.1 mm 2 mps 759 mmHg 87%
    07:00 +27°C° 0.1 mm 2 mps 759 mmHg 86%
    08:00 +28°C° 0.1 mm 2 mps 759 mmHg 82%
    09:00 +29°C° 0.1 mm 3 mps 759 mmHg 77%
    10:00 +30°C° 0.1 mm 3 mps 760 mmHg 73%
    11:00 +31°C° 0.1 mm 3 mps 759 mmHg 70%
    12:00 +32°C° 0.1 mm 4 mps 759 mmHg 67%
    13:00 +33°C° 0.1 mm 4 mps 758 mmHg 64%
    14:00 +33°C° 0 mm 4 mps 758 mmHg 64%
    15:00 +32°C° 0 mm 4 mps 757 mmHg 65%
    16:00 +32°C° 0 mm 4 mps 757 mmHg 65%
    17:00 +30°C° 0 mm 4 mps 757 mmHg 69%
    18:00 +29°C° 0 mm 3 mps 757 mmHg 73%
    19:00 +28°C° 0 mm 3 mps 757 mmHg 77%
    20:00 +28°C° 0 mm 3 mps 758 mmHg 79%
    21:00 +28°C° 0 mm 3 mps 758 mmHg 80%
    22:00 +27°C° 0 mm 3 mps 758 mmHg 82%
    23:00 +27°C° 0 mm 2 mps 758 mmHg 83%

    Day after tomorrow, 3 April, Friday

    Time Temperature Precipitation Wind Pressure Humidity
    00:00 +27°C° 0 mm 2 mps 758 mmHg 84%
    01:00 +27°C° 0 mm 2 mps 758 mmHg 85%
    02:00 +27°C° 0 mm 2 mps 758 mmHg 85%
    03:00 +27°C° 0 mm 2 mps 758 mmHg 85%
    04:00 +27°C° 0 mm 2 mps 757 mmHg 86%
    05:00 +27°C° 0.1 mm 2 mps 757 mmHg 86%
    06:00 +27°C° 0.1 mm 1 mps 758 mmHg 86%
    07:00 +27°C° 0.1 mm 1 mps 758 mmHg 86%
    08:00 +28°C° 0 mm 2 mps 758 mmHg 80%
    09:00 +30°C° 0 mm 2 mps 758 mmHg 74%
    10:00 +31°C° 0 mm 2 mps 758 mmHg 68%
    11:00 +31°C° 0 mm 2 mps 758 mmHg 68%
    12:00 +32°C° 0 mm 2 mps 757 mmHg 67%
    13:00 +33°C° 0 mm 3 mps 757 mmHg 67%
    14:00 +33°C° 0 mm 3 mps 756 mmHg 67%
    15:00 +33°C° 0 mm 3 mps 756 mmHg 68%
    16:00 +33°C° 0 mm 3 mps 755 mmHg 68%
    17:00 +31°C° 0 mm 3 mps 755 mmHg 73%
    18:00 +30°C° 0 mm 3 mps 755 mmHg 78%
    19:00 +29°C° 0 mm 3 mps 755 mmHg 83%
    20:00 +29°C° 0 mm 3 mps 756 mmHg 85%
    21:00 +28°C° 0 mm 3 mps 756 mmHg 86%
    22:00 +28°C° 0 mm 3 mps 757 mmHg 88%
    23:00 +28°C° 0 mm 3 mps 756 mmHg 88%

    4 April, Saturday

    Time Temperature Precipitation Wind Pressure Humidity
    00:00 +28°C° 0 mm 3 mps 756 mmHg 89%
    01:00 +28°C° 0 mm 3 mps 756 mmHg 90%
    02:00 +28°C° 0 mm 3 mps 756 mmHg 90%
    03:00 +28°C° 0 mm 3 mps 756 mmHg 91%
    04:00 +27°C° 0 mm 2 mps 756 mmHg 92%
    05:00 +27°C° 0.1 mm 2 mps 756 mmHg 91%
    06:00 +27°C° 0.1 mm 2 mps 756 mmHg 91%
    07:00 +27°C° 0.1 mm 2 mps 756 mmHg 91%
    08:00 +29°C° 0.5 mm 2 mps 757 mmHg 85%
    09:00 +30°C° 0.5 mm 3 mps 757 mmHg 80%
    10:00 +31°C° 0.5 mm 3 mps 758 mmHg 74%
    11:00 +33°C° 0.2 mm 3 mps 757 mmHg 69%
    12:00 +34°C° 0.2 mm 4 mps 757 mmHg 64%
    13:00 +35°C° 0.2 mm 4 mps 756 mmHg 60%
    14:00 +35°C° 0 mm 4 mps 756 mmHg 62%
    15:00 +34°C° 0 mm 5 mps 755 mmHg 63%
    16:00 +34°C° 0 mm 5 mps 755 mmHg 65%
    17:00 +33°C° 0 mm 5 mps 755 mmHg 71%
    18:00 +30°C° 0 mm 4 mps 755 mmHg 78%
    19:00 +29°C° 0 mm 4 mps 756 mmHg 84%
    20:00 +29°C° 0 mm 4 mps 756 mmHg 86%
    21:00 +29°C° 0 mm 4 mps 757 mmHg 87%
    22:00 +28°C° 0 mm 3 mps 757 mmHg 89%
    23:00 +28°C° 0.1 mm 3 mps 757 mmHg 90%

    5 April, Sunday

    Time Temperature Precipitation Wind Pressure Humidity
    00:00 +28°C° 0.1 mm 3 mps 757 mmHg 91%
    01:00 +28°C° 0.1 mm 3 mps 757 mmHg 91%
    02:00 +28°C° 0 mm 3 mps 757 mmHg 92%
    03:00 +28°C° 0 mm 2 mps 756 mmHg 92%
    04:00 +28°C° 0 mm 2 mps 756 mmHg 92%
    05:00 +28°C° 0 mm 2 mps 756 mmHg 92%
    06:00 +28°C° 0 mm 2 mps 757 mmHg 92%
    07:00 +28°C° 0 mm 2 mps 757 mmHg 92%
    08:00 +29°C° 0 mm 3 mps 757 mmHg 85%
    09:00 +30°C° 0 mm 3 mps 758 mmHg 78%
    10:00 +33°C° 0 mm 3 mps 758 mmHg 71%
    11:00 +33°C° 0 mm 3 mps 758 mmHg 68%
    12:00 +34°C° 0 mm 3 mps 757 mmHg 66%
    13:00 +34°C° 0 mm 3 mps 757 mmHg 63%
    14:00 +34°C° 0 mm 4 mps 757 mmHg 65%
    15:00 +33°C° 0 mm 4 mps 756 mmHg 68%
    16:00 +33°C° 0 mm 4 mps 756 mmHg 71%
    17:00 +32°C° 0 mm 4 mps 756 mmHg 75%
    18:00 +30°C° 0 mm 3 mps 756 mmHg 80%
    19:00 +29°C° 0 mm 3 mps 757 mmHg 85%
    20:00 +29°C° 0.1 mm 3 mps 757 mmHg 86%
    21:00 +29°C° 0.1 mm 3 mps 758 mmHg 87%
    22:00 +28°C° 0.1 mm 3 mps 759 mmHg 89%
    23:00 +28°C° 0.2 mm 4 mps 758 mmHg 89%

    6 April, Monday

    Time Temperature Precipitation Wind Pressure Humidity
    00:00 +28°C° 0.2 mm 4 mps 758 mmHg 89%
    01:00 +28°C° 0.2 mm 4 mps 758 mmHg 89%
    02:00 +28°C° 0.1 mm 4 mps 758 mmHg 89%
    03:00 +28°C° 0.1 mm 4 mps 758 mmHg 89%
    04:00 +28°C° 0.1 mm 4 mps 757 mmHg 89%
    05:00 +28°C° 0.1 mm 4 mps 757 mmHg 89%
    06:00 +28°C° 0.1 mm 4 mps 758 mmHg 89%
    07:00 +28°C° 0.1 mm 3 mps 758 mmHg 89%
    08:00 +29°C° 0.1 mm 4 mps 758 mmHg 84%
    09:00 +30°C° 0.1 mm 4 mps 759 mmHg 78%
    10:00 +32°C° 0.1 mm 5 mps 759 mmHg 73%
    11:00 +32°C° 0 mm 5 mps 759 mmHg 69%
    12:00 +33°C° 0 mm 5 mps 758 mmHg 66%
    13:00 +33°C° 0 mm 5 mps 758 mmHg 62%
    14:00 +33°C° 0 mm 4 mps 758 mmHg 63%
    15:00 +32°C° 0 mm 4 mps 757 mmHg 63%
    16:00 +32°C° 0 mm 4 mps 757 mmHg 64%
    17:00 +30°C° 0 mm 4 mps 757 mmHg 70%
    18:00 +29°C° 0 mm 3 mps 757 mmHg 75%
    19:00 +28°C° 0 mm 3 mps 757 mmHg 81%
    20:00 +28°C° 0 mm 3 mps 758 mmHg 82%
    21:00 +27°C° 0 mm 3 mps 758 mmHg 83%
    22:00 +27°C° 0 mm 3 mps 758 mmHg 84%
    23:00 +27°C° 0 mm 2 mps 758 mmHg 85%
    Show more